sat.trackr.live / text

‹ back to catalog

STARLINK-2593

NORAD 48404 · 2021-038BD

PAYLOAD ACTIVE UNKNOWN

§ Identity

Operator
Country
US
Launch date
2021-05-04
Launch site
AFETR
Launch vehicle
Mass (kg)
RCS (m²)

Purposes: comms

External: N2YO · Heavens-Above · Gunter

§ Orbital elements

Epoch: 2026-05-24T22:22:14.442240Z

Period
94.02 min
Inclination
53.1610°
Eccentricity
0.0002078
Mean motion
15.31658735 rev/d
Perigee alt
469.4 km
Apogee alt
472.3 km
Semi-major
6,849.0 km
B*
8.9784e-4
RAAN
338.0679°
Arg perigee
80.8037°
Mean anomaly
279.3200°
Rev number
27,912

§ Raw data

STARLINK-25931 48404U 21038BD  26144.93211160  .00027564  00000+0  89784-3 0  99962 48404  53.1610 338.0679 0002078  80.8037 279.3200 15.31658735279125

JSON: /api/v1/satellites/48404 · /tle

For live sub-satellite position, see the globe view (requires WebGL).

§ Visibility from observer

Set your observer location to see the next 7 days of passes ≥ 10°. The values pass through the URL so the page stays shareable.

No JS? Fill the form by hand. The geolocation button needs JavaScript.